Location: Celina Division
(33.3022°N, 96.7580°W)
Time: 08:43:07
(UTC+00:00)

Cosmos 1812 - Pass Details

Date: 06 July 2022
Orbit: 508 x 515 km, 82.5° (Epoch: 14 August)

Event Time Altitude Azimuth Distance (km) Brightness Sun altitude
Rises 07:18:00 0° 358° (N) 2,630 7.3 -32.9°
Reaches altitude 10° 07:20:10 10° 3° (N) 1,738 6.2 -32.8°
Enters shadow 07:21:08 17° 7° (N) 1,358 5.5 -32.8°
